Greenville, ME

8:54 PM EST on November 12, 2019 (GMT -0500)
Greenville

Weather History for KGNR - September, 2019

Change the Weather History Date:

Thursday, September 5, 2019

  Actual Average (KMLT) Record (KMLT)
Temperature  
Mean Temperature 57 °F -  
Max Temperature 66 °F 69 °F 85 °F (2014)
Min Temperature 48 °F 49 °F 31 °F (1963)
Degree Days  
Heating Degree Days 8    
Growing Degree Days 7 (Base 50)    
Moisture  
Dew Point 45 °F    
Average Humidity 69    
Maximum Humidity 86    
Minimum Humidity 43    
Precipitation  
Precipitation 0.00 in - - ()
Sea Level Pressure  
Sea Level Pressure 30.03 in    
Wind  
Wind Speed 11 mph ()    
Max Wind Speed 22 mph    
Max Gust Speed 33 mph    
Averages and records for this station are not official NWS values.
T = Trace of Precipitation, MM = Missing Value Source: Averaged Metar Reports

Daily Weather History Graph

Daily Weather History Graph

Search for Another Location

Airport or City:

Astronomy

Sep. 05, 2019 Rise Set
Actual Time 6:04 AM EDT 7:08 PM EDT
Civil Twilight 5:33 AM EDT 7:39 PM EDT
Nautical Twilight 4:57 AM EDT 8:15 PM EDT
Astronomical Twilight 4:19 AM EDT 8:53 PM EDT
Moon 1:27 PM EDT (9/5) 11:01 PM EDT (9/5)
Length of Visible Light 14h 05m
Length of Day
13h 04m
Waxing Crescent, 45% of the Moon is Illuminated
Sep 5
Waxing Crescent
Sep 5
First Quarter
Sep 14
Full
Sep 21
Last Quarter
Sep 28
New

Hourly Weather History & Observations

Time (EDT) Temp. Dew Point Humidity Pressure Visibility Wind Dir Wind Speed Gust Speed Precip Events Conditions
12:56 AM 53.1 °F 48.0 °F 83% 29.90 in - NW 10.4 mph 24.2 mph N/A   Unknown
1:56 AM 50.0 °F 45.0 °F 83% 29.93 in - NW 19.6 mph 28.8 mph N/A   Unknown
2:56 AM 50.0 °F 44.1 °F 80% 29.94 in - NW 21.9 mph 33.4 mph N/A   Unknown
3:56 AM 48.9 °F 44.1 °F 83% 29.96 in - NW 15.0 mph 29.9 mph N/A   Unknown
4:56 AM 48.0 °F 44.1 °F 86% 29.98 in - NW 12.7 mph 24.2 mph N/A   Unknown
5:56 AM 48.0 °F 44.1 °F 86% 30.01 in - NW 15.0 mph 25.3 mph N/A   Unknown
6:56 AM 48.9 °F 45.0 °F 86% 30.00 in - NW 16.1 mph 32.2 mph N/A   Unknown
7:56 AM 50.0 °F 46.0 °F 86% 30.02 in - NW 13.8 mph 24.2 mph N/A   Unknown
8:56 AM 52.0 °F 46.0 °F 80% 30.05 in - NNW 12.7 mph 18.4 mph N/A   Unknown
9:56 AM 55.9 °F 46.0 °F 69% 30.05 in - NNW 11.5 mph - N/A   Unknown
10:56 AM 59.0 °F 46.0 °F 62% 30.05 in - NNW 10.4 mph - N/A   Unknown
11:56 AM 62.1 °F 46.0 °F 56% 30.04 in - Variable 5.8 mph - N/A   Unknown
12:56 PM 63.0 °F 41.0 °F 45% 30.05 in - WNW 5.8 mph - N/A   Unknown
1:56 PM 64.9 °F 42.1 °F 43% 30.04 in - NNW 10.4 mph - N/A   Unknown
2:56 PM 66.0 °F 43.0 °F 43% 30.03 in - NW 10.4 mph 18.4 mph N/A   Unknown
3:56 PM 66.0 °F 44.1 °F 45% 30.03 in - NW 9.2 mph - N/A   Unknown
4:56 PM 64.9 °F 43.0 °F 45% 30.03 in - WNW 9.2 mph - N/A   Unknown
5:56 PM 62.1 °F 43.0 °F 50% 30.04 in - NW 6.9 mph - N/A   Unknown
6:56 PM 57.9 °F 46.0 °F 65% 30.06 in - NW 8.1 mph - N/A   Unknown
7:56 PM 55.0 °F 46.0 °F 72% 30.08 in - NW 3.5 mph - N/A   Unknown
8:56 PM 54.0 °F 46.0 °F 75% 30.09 in - NW 5.8 mph - N/A   Unknown
9:56 PM 53.1 °F 46.9 °F 80% 30.08 in - NW 4.6 mph - N/A   Unknown
10:56 PM 52.0 °F 46.0 °F 80% 30.08 in - NNW 3.5 mph - N/A   Unknown
11:56 PM 50.0 °F 45.0 °F 83% 30.08 in - NNW 6.9 mph - N/A   Unknown